Location: Mahannah Oil Field
(37.4664°N, 96.6003°W)
Time: 19:32:49
(UTC+00:00)

Transit 2A Rocket - Pass Details

Date: 30 January 2021
Orbit: 594 x 908 km, 66.7° (Epoch: 05 March)

Event Time Altitude Azimuth Distance (km) Brightness Sun altitude
Rises 16:41:12 0° 205° (SSW) 3,376 8.8 28.4°
Reaches altitude 10° 16:43:45 10° 205° (SSW) 2,402 8.1 28.7°
Maximum altitude 16:49:16 86° 116° (ESE) 772 5.6 29.2°
Drops below altitude 10° 16:54:19 10° 29° (NNE) 2,203 7.2 29.7°
Sets 16:56:34 0° 29° (NNE) 3,077 7.8 29.9°
